TIME,DELAY(SENSOR),PRES,OXYGEN,RAWTEMP,T(OPTODE),TCPHASE,FLUOR,BETA(BETA700),BETA(BETA412),BETA(BETA440),CDOM,C(CSC),ED(ED411.90),ED(ED443.80),ED(ED489.40),ED(ED554.70),LU(LU412.20),LU(LU443.80),LU(LU489.40),LU(LU555.00),COMP,TILTX,TILTY,CHECK
1347055851,5807,877.4699707031250000,173.2225952148437500,379.7033996582031000,11.2205400466918950,37.6673698425293000,53,100,99,78,78,13532,2146954176,2147514057,2147283136,2147497938,2147087104,2146933705,2147689984,2147123648,3175,-1,9,2688
1347059447,5805,991.9199829101562000,181.5507965087890600,475.5382995605469000,8.2864599227905270,38.6712684631347660,53,103,101,78,79,13519,2146959707,2147512932,2147291117,2147517394,2147090834,2146928064,2147708507,2147119506,244,-1,8,37073
1347063047,5805,1013.6500244140625000,190.9817047119140600,487.6189880371094000,7.9130978584289550,38.2535781860351560,53,101,102,79,79,13519,2146960502,2147516854,2147294939,2147518381,2147092608,2146927542,2147716928,2147118226,395,-1,8,366
1347066647,5806,1017.0399780273438000,194.3356018066406200,489.6210937500000000,7.8511347770690920,38.0737495422363300,52,103,98,78,79,13520,2146955154,2147519414,2147290934,2147516370,2147090852,2146922413,2147710829,2147120667,3536,-1,8,45641
1347070247,5807,1017.3599853515625000,194.3435974121093800,491.7731933593750000,7.7844982147216800,38.1105499267578100,52,101,98,79,79,13516,2146958171,2147514386,2147292626,2147520100,2147089746,2146923419,2147718363,2147119259,309,-1,8,1979
1347073847,5803,1016.2199707031250000,196.4848937988281200,494.4219970703125000,7.7024412155151370,38.0209007263183600,52,104,100,78,79,13518,2146959744,2147512932,2147293275,2147517385,2147090249,2146926372,2147714349,2147121005,3500,-1,8,11198
1347077447,5805,1019.2600097656250000,198.7823028564453000,495.8521118164062500,7.6581211090087890,37.9019088745117200,52,103,97,79,78,13513,2146959140,2147513453,2147294628,2147521216,2147091392,2146925997,2147715757,2147122304,3122,-1,9,15763
1347081047,5806,1022.0599975585938000,199.6958007812500000,495.9206848144531000,7.6559958457946780,37.8472099304199200,52,108,100,78,79,13511,2146961051,2147514285,2147295524,2147519917,2147089965,2146928502,2147717403,2147120539,3155,-1,8,57064
1347084647,5804,1023.8099975585938000,199.7642059326172000,496.4208068847656000,7.6404910087585450,37.8508605957031250,52,104,99,79,78,13511,2146959670,2147514066,2147297234,2147519076,2147092178,2146925924,2147715584,2147121188,3380,-1,9,40989
1347088247,5803,1025.4200439453125000,200.1515960693359400,496.5365905761719000,7.6369028091430660,37.8298187255859400,54,101,100,79,78,13510,2146959808,2147512969,2147294546,2147522294,2147091291,2146916544,2147716891,2147119972,3228,-1,8,13773
1347091847,5807,1022.7700195312500000,199.0420074462890600,497.8718872070312500,7.5955018997192380,37.9208717346191400,52,118,100,80,78,13505,2146955282,2147516086,2147295808,2147518006,2147090240,2146925769,2147716544,2147120841,122,-1,8,43154
1347095447,5807,1023.9799804687500000,198.1902008056640600,498.0880126953125000,7.5887980461120605,37.9775581359863300,52,105,100,78,78,13508,2146955154,2147516361,2147295533,2147517174,2147093120,2146925202,2147715931,2147122157,26,-1,8,6780
1347099047,5804,1025.6800537109375000,198.8105010986328000,498.6223144531250000,7.5722298622131350,37.9483909606933600,53,103,99,79,79,13510,2146959908,2147518217,2147294336,2147520877,2147087853,2146920192,2147714432,2147118646,3498,-1,8,24807
1347102647,5805,1021.6099853515625000,198.4255981445312500,498.5638122558594000,7.5740442276000980,37.9711608886718750,52,106,100,79,79,13507,2146956114,2147518601,2147294637,2147518701,2147090806,2146921426,2147716544,2147118509,294,-1,8,58441
1347106247,5808,1025.9100341796875000,199.7917938232422000,498.5469055175781000,7.5745668411254880,37.8862190246582000,53,103,98,78,79,13509,2146958262,2147515821,2147295497,2147521673,2147093101,2146927067,2147714102,2147122752,97,-1,8,36599
1347109847,5808,1035.0799560546875000,200.0825042724609400,497.4578857421875000,7.6083369255065920,37.8493614196777340,52,102,100,79,78,13507,2146959698,2147515392,2147296118,2147516489,2147088749,2146922779,2147712758,2147119241,132,-1,8,38959
1347113447,5806,1033.9499511718750000,199.9349060058593800,496.6911010742187500,7.6321129798889160,37.8456687927246100,52,104,98,80,80,13509,2146958262,2147514084,2147296868,2147518390,2147092525,2146923931,2147716397,2147114294,3572,-1,8,26074
1347117047,5807,1034.6800537109375000,199.0908050537109400,497.1496887207031000,7.6178951263427730,37.9053382873535160,52,102,99,80,79,13507,2146960795,2147514624,2147298358,2147519405,2147090194,2146925961,2147714989,2147120146,164,-1,8,29975
1347120647,5810,1023.7199707031250000,196.4942016601562500,495.3627014160156000,7.6732888221740720,38.0369300842285160,52,103,99,79,79,13505,2146957001,2147517842,2147298203,2147516955,2147091803,2146919634,2147714971,2147121261,81,0,8,41650
1347124247,5804,1027.5200195312500000,196.6770019531250000,495.2185058593750000,7.6777582168579100,38.0227890014648440,53,102,98,79,78,13499,2146956909,2147518994,2147292772,2147519195,2147089718,2146922029,2147711579,2147118445,3551,-1,8,190
1347127847,5808,1027.5799560546875000,196.9875946044922000,494.1890869140625000,7.7096610069274900,37.9851608276367200,53,113,101,78,78,13507,2146954221,2147515337,2147291602,2147518409,2147092242,2146921572,2147718116,2147122029,88,0,8,12631
1347131447,5806,1025.9499511718750000,196.5888061523437500,495.1599121093750000,7.6795740127563480,38.0267181396484400,53,103,100,78,79,13495,2146959058,2147516580,2147292589,2147516059,2147091510,2146920932,2147713572,2147119515,81,-1,8,31902
1347135047,5804,1027.0000000000000000,196.7238006591797000,495.1904907226562500,7.6786270141601560,38.0192184448242200,53,104,99,78,79,13493,2146958354,2147515602,2147293924,2147518838,2147091190,2146927030,2147712594,2147119058,192,-1,8,7636
1347138647,5808,1025.8100585937500000,198.7944030761718800,495.7265014648437500,7.6620140075683590,37.8989601135253900,52,102,98,78,78,13495,2146956790,2147515922,2147295241,2147518226,2147089179,2146920731,2147711113,2147119021,3302,-1,8,27998
1347142247,5806,1024.3399658203125000,198.3742980957031200,495.6267089843750000,7.6651091575622560,37.9233283996582000,53,105,98,78,79,13491,2146957924,2147517037,2147295716,2147519122,2147091136,2146925833,2147714678,2147118573,3208,-1,8,24879
1347145847,5804,1021.1900024414062000,199.0684051513672000,497.1312866210937500,7.6184639930725100,37.9067497253418000,52,103,99,78,79,13492,2146959533,2147517412,2147297389,2147519625,2147093046,2146930770,2147715666,2147118765,3422,-1,8,19015
1347149447,5806,1020.1900024414062000,199.3361053466797000,498.8768920898437500,7.5643329620361330,37.9207382202148440,52,102,99,79,78,13493,2146957650,2147511396,2147294171,2147518061,2147090194,2146920896,2147712585,2147120237,3560,-1,8,36449
1347153047,5807,1022.6500244140625000,200.0274963378906200,498.1105957031250000,7.5880990028381350,37.8646011352539060,53,103,99,79,79,13486,2146957174,2147513874,2147295533,2147516470,2147089929,2146924681,2147713014,2147121005,3591,-1,8,55600
1347156647,5808,1025.2299804687500000,199.3917999267578000,498.5502929687500000,7.5744628906250000,37.9108695983886700,52,102,100,80,78,13491,2146957650,2147514432,2147291995,2147517348,2147091419,2146929645,2147716333,2147119862,3588,-1,8,64623
1347160247,5808,1019.5100097656250000,198.9985961914062500,499.0661926269531000,7.5584611892700195,37.9445304870605500,53,105,100,79,79,13487,2146955858,2147516214,2147293988,2147520466,2147097124,2146925010,2147713398,2147120923,3597,-1,8,32588
1347163847,5805,1021.6799926757812000,201.6226043701172000,499.6802978515625000,7.5394120216369630,37.7933006286621100,52,106,99,78,78,13498,2146958729,2147514569,2147292516,2147522715,2147093275,2146927369,2147716278,2147118381,3323,-1,8,37516
1347167447,5806,1026.6199951171875000,201.3088989257812500,498.6366882324219000,7.5717821121215820,37.7946395874023440,52,103,99,79,79,13501,2146958089,2147516288,2147294272,2147520813,2147090825,2146921837,2147715675,2147118902,3269,-1,8,39755
1347171047,5808,1029.4200439453125000,199.5787963867187500,497.6841125488281000,7.6013240814208980,37.8846702575683600,53,102,99,78,80,13505,2146956306,2147514432,2147295497,2147516160,2147091163,2146924068,2147715163,2147119798,3380,-1,8,483
1347174647,5810,1027.5200195312500000,198.2696990966797000,497.5163879394531000,7.6065249443054200,37.9627609252929700,51,104,99,79,80,13501,2146958966,2147515492,2147294564,2147523072,2147092818,2146931017,2147714020,2147119241,11,-1,8,26748
1347178247,5806,1030.0500488281250000,199.3686981201172000,497.9421997070312500,7.5933208465576170,37.9019889831543000,53,103,98,80,79,13501,2146956242,2147515181,2147296082,2147519808,2147091291,2146922989,2147717595,2147122166,3440,-1,8,28607
1347181847,5806,1030.5400390625000000,199.2279968261718800,496.8721008300781000,7.6265020370483400,37.8926200866699200,52,102,99,77,78,13503,2146958756,2147517275,2147292361,2147520091,2147091593,2146929728,2147714176,2147121307,3272,-1,8,49658
1347185447,5809,1030.8900146484375000,197.9067993164062500,496.9594116210937500,7.6237950325012210,37.9761009216308600,52,104,99,79,79,13487,2146956763,2147515200,2147293302,2147518290,2147093412,2146927314,2147714697,2147118418,12,-1,8,16527
1347189047,5807,1010.9199829101562000,193.3394012451172000,489.4161071777344000,7.8574790954589840,38.1327896118164060,53,102,97,81,79,13500,2146958116,2147517824,2147295067,2147517531,2147089792,2146924672,2147716480,2147118445,694,-1,8,48650
1347192647,5808,1011.1599731445312000,192.4974975585937500,487.8662109375000000,7.9054498672485350,38.1605987548828100,52,103,99,83,79,13480,2146959387,2147514752,2147293531,2147518217,2147091501,2146919872,2147712402,2147120731,262,-1,8,14772
1347196247,5806,1008.9699707031250000,191.5538940429687500,488.0141906738281000,7.9008688926696780,38.2240104675293000,52,107,100,78,78,13477,2146957979,2147511689,2147294646,2147518857,2147088795,2146923730,2147714624,2147117019,339,-1,8,4764
1347197755,5807,1008.8800048828125000,191.7182006835937500,489.3009033203125000,7.8610482215881350,38.2354011535644500,52,103,100,78,79,13496,2146958043,2147516397,2147293421,2147518080,2147092251,2146922971,2147711707,2147119716,3024,-1,8,8771
